www.pogodaiklimat.ru
Время
и дата
11:53 30.12
12:49 30.12
12:53 30.12
13:14 30.12
13:24 30.12
13:53 30.12
14:53 30.12
15:53 30.12
16:53 30.12
17:53 30.12
18:53 30.12
19:53 30.12
20:53 30.12
21:53 30.12
22:53 30.12
23:53 30.12
00:53 31.12
01:53 31.12
02:53 31.12
03:49 31.12
03:53 31.12
04:53 31.12
05:33 31.12
05:41 31.12
05:53 31.12
06:53 31.12
07:27 31.12
07:35 31.12
07:53 31.12
08:16 31.12
08:25 31.12
08:37 31.12
08:50 31.12
08:53 31.12
09:03 31.12
09:18 31.12
09:45 31.12
09:53 31.12
10:07 31.12
10:31 31.12
10:51 31.12
10:53 31.12
11:53 31.12
12:53 31.12
13:53 31.12
14:53 31.12
15:53 31.12
16:53 31.12
Ветер
(напр.,м/с)
Видим. Явления Облачность Т
(С)
Тd
(С)
f
(%)
Тe
(С)
Тes
(С)
Комфортность P
(гПа)
Po
(гПа)
Тmin
(С)
Tmax
(С)
R
(мм)
R24
(мм)
S
(см)
нст 1 6 км дымка 10/10 210 м -14.4 -16.7 83 -19 -19 1006.2 940.4 -20.6 -14.4
СЗ 2 4 км слабый снег, дымка 10/10 210 м -12.0 -14.0 85 -19 -19 940.4
З 2 5 км слабый снег 10/10 210 м -11.7 -14.4 80 -20 -20 1005.6 940.4
СЗ 2 4 км слабый снег 10/10 240 м -11.7 -14.4 80 -19 -19 940.4
СЗ 2 5 км слабый снег 10/10 270 м -11.7 -14.4 80 -19 -19 940.4
СЗ 1 6 км слабый снег 10/10 240 м -11.1 -14.4 77 -16 -16 1005.5 940.1
СЗ 1 14 км 2/2 240 м -10.6 -13.9 77 -17 -15 1005.7 940.4
С 1 16 км ясно -10.6 -14.4 74 -16 -15 1005.8 940.4
С 1 16 км ясно -11.7 -15.0 76 -18 -17 1006.1 940.7
СВ 1 16 км 2/0 3600 м
[Ac]
-13.9 -16.1 83 -19 -19 1007.0 941.3 -14.4 -10.0
СВ 1 16 км ясно -14.4 -17.2 79 -21 -21 1007.2 941.3
штиль 0 16 км 5/0 3600 м
[Ac]
-13.3 -16.1 79 -13 -13 1007.8 942.0
СВ 1 16 км 8/0 3300 м
[Ac]
-13.9 -16.7 79 -20 -20 1007.6 942.0
СВ 1 16 км 8/0 3300 м
[Ac]
-12.2 -15.0 80 -17 -17 1007.4 942.0
С 1 16 км 10/0 2850 м
[Ac]
-11.7 -14.4 80 -16 -16 1008.2 942.9
С 2 16 км 8/0 2850 м
[Ac]
-11.1 -14.4 77 -18 -18 1008.3 942.9 -15.6 -11.1
С 2 16 км 2/0 3300 м
[Ac]
-12.2 -15.6 76 -20 -20 1008.0 942.9
С 3 16 км 2/0 3600 м
[Ac]
-12.2 -15.6 76 -22 -22 1008.1 942.9
СВ 2 16 км 5/0 3300 м
[Ac]
-11.7 -15.0 76 -20 -20 1009.2 944.2
С 3 16 км 10/8 840 м
[Ac]
-11.0 -14.0 78 -20 -20 944.5
С 3 16 км 10/8 840 м
[Ac]
-11.1 -14.4 77 -20 -20 1009.7 944.5
СВ 3 16 км 10/10 870 м -11.1 -15.0 73 -20 -20 1010.3 945.2
С 4 3 км слабый снег 10/10 660 м -12.8 -16.1 76 -23 -23 945.8
С 4 2 км слабый снег 10/10 600 м -13.3 -16.1 79 -25 -25 946.1
С 3
{5}
2 км слабый снег 10/10 540 м -13.9 -17.2 76 -24 -24 1012.2 946.4 -13.9 -10.6
С 4 2 км слабый снег ?/? -16.1 -19.4 76 -27 -27 1013.4 947.4
С 3 1 км слабый снег ?/? -17.2 -20.6 75 -28 -28 947.7
С 4
{5}
2 км слабый снег ?/? -17.8 -20.6 79 -30 -30 948.0
С 3 2 км слабый снег 10/10 480 м -18.3 -21.7 75 -30 -30 1015.0 949.0
С 4
{5}
4 км слабый снег 10/10 720 м -18.9 -22.2 75 -32 -32 опасность
обморожения
949.3
С 4 5 км слабый снег 10/10 780 м -18.9 -22.8 71 -31 -31 опасность
обморожения
949.3
С 4 5 км слабый снег 10/10 900 м -19.4 -22.8 74 -32 -32 опасность
обморожения
949.6
С 4
{6}
4 км слабый снег 10/10 960 м -19.0 -23.0 71 -32 -32 опасность
обморожения
949.9
С 4
{6}
4 км слабый снег 10/10 960 м -19.4 -23.3 71 -32 -32 опасность
обморожения
1016.5 949.9
С 4 3 км слабый снег 10/10 840 м -20.0 -23.9 71 -33 -33 опасность
обморожения
949.9
С 4 3 км слабый снег 10/10 780 м -19.4 -23.3 71 -32 -32 опасность
обморожения
950.2
С 3 2 км слабый снег 10/10 840 м -20.0 -23.3 75 -32 -32 опасность
обморожения
950.9
С 4 2 км слабый снег 10/10 780 м -20.0 -23.3 75 -33 -33 опасность
обморожения
1017.7 951.2
С 4
{5}
3 км слабый снег 10/10 990 м -20.0 -23.9 71 -32 -32 опасность
обморожения
951.5
С 4 3 км слабый снег 10/10 810 м -20.0 -23.9 71 -33 -33 опасность
обморожения
951.5
С 4
{5}
6 км слабый снег 10/8 840 м
[Ac]
-20.0 -24.0 70 -33 -33 опасность
обморожения
952.5
С 4
{5}
8 км слабый снег 10/8 900 м
[Ac]
-20.0 -23.9 71 -32 -32 опасность
обморожения
1018.7 952.2
С 4
{5}
16 км 10/0 2100 м
[Ac]
-19.4 -24.4 64 -32 -32 опасность
обморожения
1018.7 952.5 -20.0 -13.9
С 4 16 км 10/10 1950 м -18.9 -24.4 62 -32 -32 опасность
обморожения
1018.7 952.2
С 4 16 км 10/2 1650 м
[Ac]
-18.9 -24.4 62 -31 -31 опасность
обморожения
1019.1 952.8
С 4 16 км 10/0 2700 м
[Ac]
-18.9 -23.3 68 -31 -31 опасность
обморожения
1019.3 952.8
С 3 16 км 10/8 1800 м
[Ac]
-20.0 -25.0 64 -31 -31 опасность
обморожения
1020.7 954.1
С 3 16 км 10/0 2550 м
[Ac]
-20.6 -25.0 68 -32 -32 опасность
обморожения
1020.9 954.1
Местоположение метеостанции Pierre Regional Airport: широта 44.3828 долгота -100.2858 высота над уровнем моря 531 м.
В архиве по умолчанию представлена погода в Пьере за последние 1-2 суток. Обновление информации о фактической погоде в базе происходит ежечасно! Архивные данные за месяц целиком и за предыдущие месяцы Вы можете получить, выбрав интересующий диапазон дат из раскрывающегося списка и нажав кнопку "Ввод!".
Внимание! Архив погоды МЕТАР в базе сайта по станциям, не включенным в климатический монитор, хранится не более 60 дней. Нет смысла пытаться выбрать более раннюю дату.
*Определитесь, кто Вы:
Внимание! Время в таблицах - местное (без учета летнего времени). Для получения всемирного времени необходимо вычесть поправку, которая равна -6 ч.
Смотрите также архив погоды в соседних городах и на ближайших метеорологических станциях:
Партнеры нашего сайта:      
Пояснения к столбцам:
  • Ветер - указаны скорость ветра в м/с - средняя за 10 мин, порывы в срок и между сроками (в фигурных скобках) и направление, откуда дует ветер: С - северный,
  • СВ - северо-восточный, В - восточный, ЮВ - юго-восточный, Ю - южный, ЮЗ - юго-западный, З - западный, СЗ - северо-западный.
  • Видимость - горизонтальная дальность видимости в метрах или километрах. При видимости от 1 до 10 км при отсутствии осадков обычно наблюдается дымка, при ухудшении видимости до 1 км и менее - туман. В сухую погоду видимость может ухудшаться дымом, пылью или мглою.
  • Явления - указаны атмосферные явления, наблюдавшиеся в срок или в последний час перед сроком; фигурными скобками обозначены явления, наблюдавшиеся между сроками (за 1-3 часа до срока); квадратными скобками обозначены град или гололедные отложения с указанием их диаметра в мм.
  • Облачность - указаны через наклонную черту общая и нижняя облачность в баллах и высота нижней границы облаков в метрах; квадратными скобками обозначены формы облаков: Ci - перистые, Cs - перисто-слоистые, Cc - перисто-кучевые, Ac - высококучевые, As - высокослоистые, Sc - слоисто-кучевые, Ns - слоисто-дождевые, Cu - кучевые, Cb - кучево-дождевые. Подробнее классификацию облаков см. в Атласе облаков (PDF).
  • T - Температура воздуха - температура, измеренная на высоте 2 м над землей.
  • Td - Температура точки росы - температура, при понижении до которой содержащийся в воздухе водяной пар достигнет насыщения.
  • f - Относительная влажность воздуха - влажноcть воздуха, измеренная на высоте 2 м над землей.
  • Te - Эффективная температура - температура, которую ощущает одетый по сезону человек в тени. Характеристика душности погоды. При расчете учитывается влияние влажности воздуха и скорости ветра на теплоощущения человека.
  • Tes - Эффективная температура на солнце - температура, которую ощущает человек, с поправкой на солнечный нагрев. Характеристика знойности погоды. Зависит от высоты солнца над горизонтом, облачности и скорости ветра. Ночью, в пасмурную погоду, а также при ветре 12 м/с и более поправка равна нулю.
  • P - Атмосферное давление - приведенное к уровню моря атмосферное давление.
  • Po - Атмосферное давление - измеренное на уровне метеостанции атмосферное давление.
  • Tmin - Минимальная температура - минимум температуры воздуха на высоте 2 м над землей.
  • Tmax - Максимальная температура - максимум температуры воздуха на высоте 2 м над землей.
  • R - Количество осадков - Количество выпавших осадков за период времени, мм. При наведении курсора мыши на число - период времени, за который выпало указанное количество осадков.
  • R24 - Количество осадков - Количество выпавших осадков за 24 часа, мм.
  • S - Снежный покров - Высота снежного покрова, см. При наведении курсора мыши на число - состояние снежного покрова и степень покрытия местности в баллах.